Doha, Qatar

5:17 PM AST on August 29, 2016 (GMT +0300)
Doha International

Weather History for OTBD - August, 2010

Change the Weather History Date:

Sunday, August 15, 2010

  Actual Average Record
Temperature  
Mean Temperature 96 °F -  
Max Temperature 103 °F 103 °F 113 °F (2005)
Min Temperature 89 °F 82 °F 86 °F (1997)
Cooling Degree Days 31    
Growing Degree Days 46 (Base 50)    
Moisture  
Dew Point 84 °F    
Average Humidity 67    
Maximum Humidity 84    
Minimum Humidity 41    
Precipitation  
Precipitation 0.00 in 0.00 in - ()
Sea Level Pressure  
Sea Level Pressure 29.53 in    
Wind  
Wind Speed 5 mph ()    
Max Wind Speed 14 mph    
Max Gust Speed -    
Visibility 5.7 miles    
Events      
Averages and records for this station are not official NWS values.
T = Trace of Precipitation, MM = Missing Value Source: Averaged Metar Reports

Daily Weather History Graph

Daily Weather History Graph

Search for Another Location

Airport or City:

Trip Planner

Search our weather history database for the weather conditions in past years. The results will help you decide how hot, cold, wet, or windy it might be!

Date:

Astronomy

Aug. 15, 2010 Rise Set
Actual Time 5:07 AM AST 6:08 PM AST
Civil Twilight 4:43 AM AST 6:32 PM AST
Nautical Twilight 4:14 AM AST 7:01 PM AST
Astronomical Twilight 3:45 AM AST 7:30 PM AST
Moon 10:35 AM AST (8/15) 9:45 PM AST (8/15)
Length of Visible Light 13h 49m
Length of Day
13h 01m
Waxing Crescent, 35% of the Moon is Illuminated
Aug 15
Waxing Crescent
Aug 16
First Quarter
Aug 24
Full
Sep 1
Last Quarter
Sep 8
New

Hourly Weather History & Observations

Time (AST) Temp. Heat Index Dew Point Humidity Pressure Visibility Wind Dir Wind Speed Gust Speed Precip Events Conditions
12:00 AM 93.2 °F 124.9 °F 86.0 °F 79% 29.53 in - Variable 1.2 mph - N/A   Clear
1:00 AM 93.2 °F 120.9 °F 84.2 °F 75% 29.50 in - SE 3.5 mph - N/A   Clear
2:00 AM 93.2 °F 117.1 °F 82.4 °F 71% 29.50 in - South 3.5 mph - N/A   Clear
3:00 AM 91 °F - 85 °F 77% 29.51 in 6 mi SSW 3.5 mph - -  
3:00 AM 91.4 °F 117.8 °F 84.2 °F 79% 29.50 in - SSW 3.5 mph - N/A   Clear
4:00 AM 91.4 °F 122.4 °F 86.0 °F 84% 29.50 in - South 3.5 mph - N/A   Clear
5:00 AM 91.4 °F 122.4 °F 86.0 °F 84% 29.50 in 5.0 mi North - - N/A   Unknown
6:00 AM 91.4 °F 122.4 °F 86.0 °F 84% 29.56 in 4.3 mi ENE 3.5 mph - N/A   Unknown
7:00 AM 95.0 °F 133.8 °F 87.8 °F 80% 29.56 in 3.7 mi Variable 2.3 mph - N/A   Unknown
8:00 AM 96.8 °F 126.0 °F 84.2 °F 67% 29.59 in 5.6 mi East 4.6 mph - N/A   Unknown
9:00 AM 99 °F - 84 °F 54% 29.59 in 6 mi East 8.1 mph - -  
9:00 AM 98.6 °F 128.0 °F 84.2 °F 63% 29.56 in - East 8.1 mph - N/A   Clear
10:00 AM 98.6 °F 128.0 °F 84.2 °F 63% 29.56 in - East 9.2 mph - N/A   Clear
11:00 AM 100.4 °F 136.1 °F 86.0 °F 64% 29.56 in 5.6 mi East 5.8 mph - N/A   Unknown
12:00 PM 100.4 °F 126.1 °F 82.4 °F 56% 29.53 in 5.0 mi East 6.9 mph - N/A   Unknown
1:00 PM 100.4 °F 126.1 °F 82.4 °F 56% 29.53 in - East 10.4 mph - N/A   Clear
2:00 PM 102.2 °F 128.5 °F 82.4 °F 53% 29.50 in - East 12.7 mph - N/A   Clear
3:00 PM 101 °F - 79 °F 41% 29.51 in 10 mi East 13.8 mph - -  
3:00 PM 102.2 °F 121.5 °F 78.8 °F 47% 29.50 in - East 13.8 mph - N/A   Clear
4:00 PM 100.4 °F 126.1 °F 82.4 °F 56% 29.50 in - East 13.8 mph - N/A   Clear
5:00 PM 98.6 °F 120.3 °F 80.6 °F 56% 29.50 in - East 12.7 mph - N/A   Clear
6:00 PM 96.8 °F 121.7 °F 82.4 °F 63% 29.50 in - East 11.5 mph - N/A   Clear
7:00 PM 95.0 °F 123.7 °F 84.2 °F 71% - - ENE 6.9 mph - N/A   Clear
8:00 PM 95.0 °F 123.7 °F 84.2 °F 71% 29.53 in 5.6 mi ENE 5.8 mph - N/A   Unknown
9:00 PM 95 °F - 84 °F 64% 29.55 in 6 mi NNE 6.9 mph - -  
9:00 PM 95.0 °F 123.7 °F 84.2 °F 71% 29.53 in - NNE 6.9 mph - N/A   Clear
10:00 PM 95.0 °F 119.6 °F 82.4 °F 67% 29.53 in - East 5.8 mph - N/A   Clear
11:00 PM 95.0 °F 119.6 °F 82.4 °F 67% 29.53 in - ENE 8.1 mph - N/A   Clear